Location: Givhans Ferry State Park
(33.0284°N, 80.3868°W)
Time: 11:07:05
(UTC-04:00)

Daily predictions for brighter satellites

Satellite Brightness Start Highest point End
(mag) Time Altitude Azimuth Time Altitude Azimuth Time Altitude Azimuth
Cosmos 1110 Rocket 4.3 20:12:43 10° SSW 20:17:58 77° WNW 20:23:17 10° NNE
Cosmos 1892 3.4 20:18:05 10° NNE 20:21:34 34° E 20:25:04 10° SSE
Cosmos 1400 Rocket 3.2 20:20:04 10° N 20:23:48 42° E 20:27:33 10° SSE
Cosmos 2322 Rocket 3.1 20:20:15 10° SSE 20:24:47 26° ESE 20:29:21 10° NE
H-2A R/B 3.0 20:23:47 10° SSE 20:27:35 50° ENE 20:31:21 10° N
Cosmos 1302 Rocket 4.0 20:24:07 10° S 20:29:15 63° ESE 20:34:23 10° NNE
Meteor 2-3 Rocket 3.8 20:27:29 10° N 20:33:12 72° E 20:38:56 10° SSE
FREGAT/IRIS 4.1 20:32:06 10° S 20:34:58 40° W 20:37:50 10° NNW
Cosmos 2360 Rocket 4.0 20:35:09 10° ESE 20:35:36 10° E 20:36:04 10° E
Cosmos 1980 Rocket 2.5 20:30:08 10° SSW 20:35:47 77° WNW 20:41:30 10° NNE
Cosmos 1315 Rocket 3.6 20:33:42 10° NNE 20:37:22 32° ENE 20:40:58 10° SE
USA 234 4.4 20:36:06 10° E 20:41:36 29° NNE 20:47:05 10° NNW
Intercosmos 25 Rocket 4.4 20:43:08 13° SE 20:44:57 19° E 20:47:25 10° NE
SEDSat Delta rocket 3.8 20:40:03 10° WSW 20:45:00 50° SSE 20:50:26 11° E
OTV 4 0.6 20:44:21 10° WNW 20:47:10 57° SSW 20:49:08 17° SE
Cosmos 2227 Rocket 4.3 20:42:48 10° NW 20:47:30 27° WSW 20:52:11 10° SSW
CZ-2D R/B 3.3 20:44:09 10° SSE 20:47:59 59° ENE 20:51:49 10° N
Cosmos 1825 3.7 20:48:26 10° NNE 20:51:09 19° ENE 20:52:20 16° E
SL-16 R/B 2.4 20:46:54 10° S 20:52:17 46° ESE 20:57:41 10° NNE
Nadezhda 4 Rocket 4.1 20:49:54 10° N 20:56:11 84° W 21:02:30 10° S
GPS 2-04 Rocket1 3.7 20:56:04 10° W 20:59:17 31° SSW 21:01:34 17° SSE
Cosmos 1634 Rocket 4.0 20:53:29 10° S 20:59:42 69° E 21:05:59 10° NNE
Cosmos 1707 Rocket 3.7 20:57:33 10° S 21:02:00 77° W 21:06:27 10° N
Sakura Rocket 4.3 20:59:33 10° SSW 21:02:28 20° SSE 21:03:17 19° SE
ATLAS 5 CENTAUR R/B 4.4 21:00:10 10° NNE 21:02:49 13° NE 21:05:33 10° ENE
USA 186 1.2 21:02:50 23° SSE 21:04:18 69° ENE 21:07:04 10° N
Cosmos 1092 Rocket 4.0 20:59:35 10° N 21:05:58 82° E 21:12:17 10° S
Helios 1B rocket 2.3 21:02:32 10° NNE 21:06:36 65° E 21:10:40 10° S
Lacrosse 4 Rocket 2.9 21:03:55 10° N 21:07:23 23° ENE 21:08:46 20° E
ALOS 4.1 21:03:41 10° SSW 21:07:49 31° W 21:11:58 10° NW
SAR-Lupe-4 3.8 21:07:59 25° SE 21:09:44 47° ENE 21:13:12 10° N
Cosmos 1939 Rocket 3.7 21:08:26 25° ESE 21:09:56 33° ENE 21:13:34 10° N
ERBS 3.7 21:08:53 10° NNW 21:11:49 25° NE 21:12:44 22° ENE
Gblst 52 Del rocket 4.2 21:07:05 10° NW 21:12:52 80° SW 21:16:27 22° SE
Cosmos 1733 Rocket 4.0 21:09:21 10° NNE 21:13:14 28° ENE 21:14:14 26° ESE
Cosmos 1486 Rocket 3.9 21:09:46 10° NNW 21:15:01 87° ENE 21:19:20 16° SSE
Cosmos 1862 Rocket 4.1 21:13:01 23° SE 21:15:09 37° E 21:19:17 10° NNE
Resurs 1-3 4.4 21:15:14 10° S 21:19:29 51° W 21:23:46 10° NNW
USA 229 DEB 4.4 21:13:57 10° SSE 21:19:30 28° ESE 21:25:08 10° NE
USA 229 4.4 21:14:04 10° SSE 21:19:37 27° ESE 21:25:12 10° NE
Cosmos 1992 Rocket 4.0 21:16:45 10° S 21:21:52 60° ESE 21:27:02 10° NNE
Cosmos 2227 4.2 21:19:37 10° NNW 21:25:23 88° WSW 21:29:15 21° SSE
Cosmos 1408 2.6 21:23:05 10° N 21:26:44 58° E 21:27:28 47° SE
Atlas Centaur 2 3.0 21:20:01 10° SW 21:26:46 53° SSE 21:31:32 25° E
SAR-Lupe-1 3.9 21:26:08 42° SSE 21:27:13 71° ENE 21:30:47 10° N
Cosmos 2242 Rocket 3.8 21:29:02 10° SSW 21:33:33 73° W 21:38:03 10° N
Helios 1A 3.4 21:36:34 23° S 21:39:04 62° WSW 21:43:17 10° NNW
Cosmos 1627 Rocket 4.5 21:33:54 10° N 21:40:06 82° W 21:45:01 17° S
Cosmos 2279 Rocket 3.9 21:34:42 10° S 21:40:57 87° E 21:47:13 10° N
Cosmos 1503 Rocket 3.9 21:41:09 10° NNW 21:46:25 85° ENE 21:48:09 43° SSE
DELTA 2 R/B (1) 3.8 21:42:32 10° WNW 21:48:03 58° SSW 21:49:35 43° SSE
Cosmos 1354 Rocket 3.9 21:45:06 10° NNW 21:50:23 87° WSW 21:52:09 43° SSE
Resurs 01 Rocket 4.1 21:47:37 10° SW 21:50:45 19° W 21:53:54 10° NW
H-2A R/B 3.9 21:52:49 15° NE 21:52:49 15° NE 21:54:45 10° NNE
SJ-11-01 4.5 21:51:18 36° S 21:53:10 68° WSW 21:57:49 10° NNW
MINOTAUR IV R/B 4.4 21:48:40 10° NNW 21:53:14 75° ENE 21:53:36 69° ESE
CZ-4B DEB 3.9 21:54:21 38° W 21:54:21 38° W 21:57:06 10° NNW
OAO 3 Rocket 3.4 21:50:34 10° W 21:55:28 69° N 21:56:38 50° ENE
YAOGAN 6 3.1 21:56:56 53° N 21:56:56 53° N 21:59:49 10° N
FALCON 9 R/B 3.2 22:00:14 10° W 22:00:46 15° WNW 22:00:46 15° WNW
Cosmos 1428 Rocket 4.3 21:56:28 10° N 22:02:36 89° WSW 22:04:53 41° S
SPOT 5 3.8 22:04:11 33° NE 22:04:11 33° NE 22:07:39 10° N
Cosmos 968 Rocket 4.3 22:02:41 10° N 22:06:50 35° NE 22:06:50 35° NE
Meteor 2-10 Rocket 3.6 22:05:37 43° S 22:07:37 85° E 22:13:28 10° N
Cosmos 2263 Rocket 2.0 22:02:30 10° NNW 22:08:02 67° ENE 22:08:25 65° E
Envisat 4.0 22:05:47 23° SSW 22:08:30 42° W 22:13:17 10° NNW
Cosmos 2322 Rocket 3.8 22:03:33 10° SW 22:08:36 34° WNW 22:13:41 10° N
Cosmos 1933 4.5 22:11:30 34° WSW 22:12:33 41° W 22:16:23 10° N
Sich 1 Rocket 4.3 22:13:19 10° N 22:16:31 45° NNE 22:16:31 45° NNE
Cosmos 2360 Rocket 2.2 22:15:49 29° SSW 22:18:47 79° WNW 22:24:28 10° NNE
USA 234 3.2 22:22:52 60° SSE 22:24:07 76° SW 22:30:42 10° NW
Cosmos 2322 3.7 22:25:28 57° SW 22:26:39 79° WNW 22:32:23 10° NNE
NOAA 11 4.1 22:28:03 85° N 22:28:03 85° N 22:33:25 10° NNW
USA 245 4.3 22:30:44 68° NE 22:30:44 68° NE 22:35:42 10° N
SEDSat Delta rocket 3.8 22:25:40 10° W 22:30:34 67° SW 22:30:34 67° SW
SPOT 1/Viking Rocket 4.4 22:40:22 42° NNE 22:40:22 42° NNE 22:43:58 10° N
MetOp-B 4.4 22:42:09 65° WNW 22:42:09 65° WNW 22:46:57 10° NNW
ERS-1 Rocket 3.9 22:42:09 42° W 22:42:09 42° W 22:46:54 10° NNW
Lacrosse 4 Rocket 3.5 22:42:21 10° NW 22:45:08 25° W 22:45:08 25° W
ATLAS 5 CENTAUR R/B 2.6 22:42:16 10° NNW 22:47:45 66° NNE 22:47:45 66° NNE
ARGOS 3.7 22:52:58 54° NW 22:52:58 54° NW 22:57:11 10° NNW
Milstar 3 3.5 22:48:10 10° W 22:53:10 38° SW 22:53:10 38° SW
SeaSat 1 3.5 22:57:02 41° NNW 22:57:02 41° NNW 23:00:14 10° NNW
Cosmos 2278 Rocket 4.5 22:58:34 10° NNE 23:00:07 14° NE 23:00:07 14° NE
Terra 4.0 23:10:04 20° N 23:10:04 20° N 23:11:37 10° N
USA 229 DEB 4.5 23:03:35 10° SW 23:10:06 47° NW 23:16:45 10° NNE
USA 229 4.5 23:03:40 10° SW 23:10:11 48° NW 23:16:51 10° NNE
Cosmos 1844 Rocket 4.2 23:06:05 10° N 23:09:04 29° NNE 23:09:04 29° NNE
Atlas Centaur 2 3.4 23:08:39 10° W 23:14:12 52° WSW 23:14:12 52° WSW
Cosmos 2219 Rocket 4.3 23:28:37 19° NNE 23:28:37 19° NNE 23:30:10 10° NNE
H-2A R/B 4.0 23:33:27 25° NW 23:33:27 25° NW 23:35:39 10° NNW
CZ-4C R/B 4.2 23:26:39 10° N 23:32:09 28° NE 23:32:09 28° NE
H-2A R/B 4.1 23:17:54 10° W 23:51:34 54° WSW 23:51:34 54° WSW
